Date String (YYYY-MM-DD hh:mm:ss) UTC,Instrument flags,absolute air pressure of the measurement (hPa),sample flow rate (lpm),inlet stack bypass flow (lpm),air temperature of the measurement (°C),ambient temperature measured by the external sensor (°C),aerosol sample conditioner tube jacket temperature (°C),OPC LED temperature (°C),internal box temperature (°C),relative humidity of the measurement (%),span deviation,mass concentration of particles derived from Lorenz-Mie calculation of OPC scattering (μg/m³),mass concentration of particles derived from Lorenz-Mie calculation of OPC scattering (μg/m³),mass concentration of particles derived from Lorenz-Mie calculation of OPC scattering (μg/m³)
DateTimeUTC,F1_M11,P_M11,Q1_M11,Q2_M11,T1_M11,T2_M11,T3_M11,T4_M11,T5_M11,U1_M11,ZSPAN_M11,X2_M11,X0_M11,X1_M11
2023-10-10 07:00:00,SystemResetWarning,0825.0,4.99,000.00,029.0,027.7,000.0,037.4,030.7,10.1,0000.0,0004.26,0012.06,0003.55
2023-10-10 07:01:00,SystemResetWarning,0824.9,5.00,000.00,029.0,027.7,000.0,037.4,030.7,10.1,0000.0,0004.26,0011.74,0003.55
2023-10-10 07:02:00,SystemResetWarning,0824.9,5.01,000.00,029.0,027.7,000.0,037.4,030.7,10.1,0000.0,0004.26,0011.73,0003.54
2023-10-10 07:03:00,SystemResetWarning,0824.9,5.00,000.00,029.0,027.7,000.0,037.4,030.7,10.0,0000.0,0004.26,0012.48,0003.53
2023-10-10 07:04:00,SystemResetWarning,0824.9,5.01,000.00,029.0,027.7,000.0,037.4,030.7,10.0,0000.0,0004.28,0012.65,0003.53
2023-10-10 07:05:00,SystemResetWarning,0824.9,5.00,000.00,029.1,027.7,000.0,037.5,030.7,10.1,0000.0,0004.31,0012.31,0003.54
2023-10-10 07:06:00,SystemResetWarning,0824.9,5.00,000.00,029.1,027.7,000.0,037.5,030.7,10.0,0000.0,0004.31,0011.11,0003.53
2023-10-10 07:07:00,SystemResetWarning,0824.9,4.99,000.00,029.1,027.7,000.0,037.5,030.7,9.9,0000.0,0004.33,0011.13,0003.51
2023-10-10 07:08:00,SystemResetWarning,0824.9,4.99,000.00,029.1,027.7,000.0,037.5,030.7,9.8,0000.0,0004.35,0011.26,0003.50
2023-10-10 07:09:00,SystemResetWarning,0824.9,5.00,000.00,029.1,027.7,000.0,037.5,030.7,9.8,0000.0,0004.33,0011.00,0003.48
2023-10-10 07:10:00,SystemResetWarning,0824.9,5.01,000.00,029.1,027.7,000.0,037.5,030.7,9.8,0000.0,0004.27,0010.57,0003.47
2023-10-10 07:11:00,SystemResetWarning,0824.9,5.01,000.00,029.1,027.7,000.0,037.5,030.7,9.7,0000.0,0004.26,0011.07,0003.47
2023-10-10 07:12:00,SystemResetWarning,0824.9,5.01,000.00,029.1,027.7,000.0,037.5,030.7,9.7,0000.0,0004.29,0011.72,0003.47
2023-10-10 07:13:00,SystemResetWarning,0824.9,4.99,000.00,029.1,027.7,000.0,037.5,030.7,9.7,0000.0,0004.29,0011.99,0003.47
2023-10-10 07:14:00,SystemResetWarning,0824.9,5.00,000.00,029.1,027.7,000.0,037.6,030.7,9.7,0000.0,0004.27,0011.97,0003.48
2023-10-10 07:15:00,SystemResetWarning,0824.9,5.00,000.00,029.1,027.7,000.0,037.5,030.7,9.7,0000.0,0004.24,0011.08,0003.47
2023-10-10 07:16:00,SystemResetWarning,0824.9,5.00,000.00,029.1,027.7,000.0,037.5,030.7,9.8,0000.0,0004.19,0011.74,0003.45
2023-10-10 07:17:00,SystemResetWarning,0824.9,5.00,000.00,029.1,027.7,000.0,037.5,030.7,9.7,0000.0,0004.19,0013.08,0003.44
2023-10-10 07:18:00,SystemResetWarning,0824.9,4.99,000.00,029.1,027.7,000.0,037.5,030.7,9.7,0000.0,0004.16,0013.09,0003.44
2023-10-10 07:19:00,SystemResetWarning,0824.9,4.99,000.00,029.1,027.8,000.0,037.5,030.8,9.6,0000.0,0004.10,0012.96,0003.44
2023-10-10 07:20:00,SystemResetWarning,0824.9,5.00,000.00,029.1,027.8,000.0,037.5,030.8,9.6,0000.0,0004.06,0012.93,0003.44
2023-10-10 07:21:00,SystemResetWarning,0824.9,5.01,000.00,029.2,027.8,000.0,037.6,030.8,9.6,0000.0,0004.04,0013.67,0003.44
2023-10-10 07:22:00,SystemResetWarning,0824.9,5.01,000.00,029.2,027.8,000.0,037.6,030.8,9.6,0000.0,0004.00,0012.87,0003.43
2023-10-10 07:23:00,SystemResetWarning,0824.9,5.01,000.00,029.2,027.8,000.0,037.6,030.8,9.6,0000.0,0003.99,0012.37,0003.43
2023-10-10 07:24:00,SystemResetWarning,0824.9,5.00,000.00,029.2,027.8,000.0,037.6,030.8,9.7,0000.0,0003.97,0011.88,0003.41
2023-10-10 07:25:00,SystemResetWarning,0824.9,4.99,000.00,029.2,027.8,000.0,037.6,030.8,9.6,0000.0,0003.99,0011.16,0003.40
2023-10-10 07:26:00,SystemResetWarning,0824.9,5.00,000.00,029.2,027.8,000.0,037.6,030.8,9.6,0000.0,0004.01,0010.79,0003.40
2023-10-10 07:27:00,SystemResetWarning,0824.9,5.01,000.00,029.2,027.8,000.0,037.6,030.8,9.5,0000.0,0004.00,0010.62,0003.39
2023-10-10 07:28:00,SystemResetWarning,0824.9,5.00,000.00,029.2,027.8,000.0,037.6,030.8,9.4,0000.0,0004.00,0009.06,0003.38
2023-10-10 07:29:00,SystemResetWarning,0824.9,5.00,000.00,029.2,027.8,000.0,037.6,030.8,9.4,0000.0,0003.99,0009.05,0003.39
2023-10-10 07:30:00,SystemResetWarning,0824.9,4.99,000.00,029.2,027.8,000.0,037.6,030.8,9.4,0000.0,0004.04,0010.19,0003.38
2023-10-10 07:31:00,SystemResetWarning,0824.9,5.00,000.00,029.2,027.8,000.0,037.6,030.8,9.4,0000.0,0004.04,0010.45,0003.38
2023-10-10 07:32:00,SystemResetWarning,0824.9,5.01,000.00,029.2,027.8,000.0,037.6,030.8,9.4,0000.0,0004.05,0009.79,0003.37
2023-10-10 07:33:00,SystemResetWarning,0824.9,5.01,000.00,029.2,027.8,000.0,037.6,030.8,9.4,0000.0,0004.02,0009.48,0003.35
2023-10-10 07:34:00,SystemResetWarning,0824.9,5.00,000.00,029.2,027.8,000.0,037.6,030.8,9.4,0000.0,0004.00,0009.50,0003.34
2023-10-10 07:35:00,SystemResetWarning,0824.9,5.00,000.00,029.2,027.8,000.0,037.6,030.8,9.4,0000.0,0003.98,0010.07,0003.33
2023-10-10 07:36:00,SystemResetWarning,0824.9,4.99,000.00,029.2,027.8,000.0,037.6,030.8,9.4,0000.0,0003.96,0010.17,0003.33
2023-10-10 07:37:00,SystemResetWarning,0824.9,4.99,000.00,029.2,027.8,000.0,037.7,030.8,9.5,0000.0,0003.92,0010.11,0003.33
2023-10-10 07:38:00,SystemResetWarning,0824.9,5.00,000.00,029.2,027.8,000.0,037.6,030.8,9.4,0000.0,0003.91,0010.02,0003.33
2023-10-10 07:39:00,SystemResetWarning,0824.9,4.99,000.00,029.2,027.8,000.0,037.6,030.8,9.3,0000.0,0003.92,0010.03,0003.32
2023-10-10 07:40:00,SystemResetWarning,0824.9,4.99,000.00,029.2,027.8,000.0,037.7,030.8,9.3,0000.0,0003.90,0010.50,0003.31
2023-10-10 07:41:00,SystemResetWarning,0824.9,5.00,000.00,029.2,027.8,000.0,037.7,030.8,9.3,0000.0,0003.91,0010.04,0003.30
2023-10-10 07:42:00,SystemResetWarning,0824.9,5.01,000.00,029.2,027.8,000.0,037.7,030.8,9.3,0000.0,0003.93,0009.88,0003.29
2023-10-10 07:43:00,SystemResetWarning,0824.9,5.01,000.00,029.2,027.8,000.0,037.7,030.8,9.2,0000.0,0003.90,0009.82,0003.28
2023-10-10 07:44:00,SystemResetWarning,0824.9,5.01,000.00,029.2,027.8,000.0,037.7,030.8,9.2,0000.0,0003.91,0009.89,0003.28
2023-10-10 07:45:00,SystemResetWarning,0824.9,5.00,000.00,029.2,027.8,000.0,037.7,030.8,9.2,0000.0,0003.92,0009.99,0003.27
2023-10-10 07:46:00,SystemResetWarning,0824.9,5.00,000.00,029.2,027.8,000.0,037.7,030.8,9.2,0000.0,0003.91,0009.76,0003.26
2023-10-10 07:47:00,SystemResetWarning,0824.9,4.99,000.00,029.2,027.8,000.0,037.7,030.8,9.2,0000.0,0003.86,0009.56,0003.25
2023-10-10 07:48:00,SystemResetWarning,0824.9,5.00,000.00,029.2,027.8,000.0,037.7,030.8,9.2,0000.0,0003.85,0009.60,0003.24
2023-10-10 07:49:00,SystemResetWarning,0824.9,4.98,000.00,029.2,027.8,000.0,037.7,030.8,9.1,0000.0,0003.82,0009.83,0003.22
2023-10-10 07:50:00,SystemResetWarning,0824.9,5.00,000.00,029.2,027.8,000.0,037.7,030.8,9.1,0000.0,0003.80,0010.12,0003.22
2023-10-10 07:51:00,SystemResetWarning,0824.9,5.00,000.00,029.3,027.8,000.0,037.7,030.8,9.1,0000.0,0003.77,0009.53,0003.21
2023-10-10 07:52:00,SystemResetWarning,0824.9,5.00,000.00,029.3,027.8,000.0,037.7,030.9,9.0,0000.0,0003.69,0009.00,0003.20
2023-10-10 07:53:00,SystemResetWarning,0824.9,5.00,000.00,029.2,027.8,000.0,037.7,030.9,9.0,0000.0,0003.62,0008.61,0003.20
2023-10-10 07:54:00,SystemResetWarning,0824.9,5.00,000.00,029.3,027.8,000.0,037.7,030.9,9.0,0000.0,0003.62,0008.87,0003.19
2023-10-10 07:55:00,SystemResetWarning,0824.9,5.00,000.00,029.3,027.8,000.0,037.7,030.9,9.0,0000.0,0003.59,0009.05,0003.18
2023-10-10 07:56:00,SystemResetWarning,0824.9,5.00,000.00,029.3,027.8,000.0,037.7,030.8,9.0,0000.0,0003.57,0008.91,0003.17
2023-10-10 07:57:00,SystemResetWarning,0824.8,5.00,000.00,029.3,027.8,000.0,037.7,030.9,9.0,0000.0,0003.57,0008.72,0003.16
2023-10-10 07:58:00,SystemResetWarning,0824.9,5.00,000.00,029.3,027.8,000.0,037.7,030.9,9.0,0000.0,0003.57,0008.71,0003.16
2023-10-10 07:59:00,SystemResetWarning,0824.9,5.00,000.00,029.3,027.8,000.0,037.7,030.8,9.0,0000.0,0003.56,0008.60,0003.15
